Location: Ku?niki
(51.4449°N, 17.8974°E)
Time: 00:49:42
(UTC+00:00)

VELOX 1 - Pass Details

Date: 01 July 2022
Orbit: 624 x 639 km, 98.4° (Epoch: 07 August)

Event Time Altitude Azimuth Distance (km) Brightness Sun altitude
Rises 01:13:18 0° 103° (ESE) 2,934 ? -9.3°
Reaches altitude 10° 01:17:02 10° 70° (ENE) 2,035 ? -8.9°
Maximum altitude 01:18:25 11° 51° (NE) 1,947 ? -8.8°
Drops below altitude 10° 01:19:48 10° 33° (NNE) 2,041 ? -8.7°
Sets 01:23:33 0° 0° (N) 2,958 ? -8.4°
